Provincetown, Massachusetts, United States (02657)
Lat: 42.06N, Lon: 70.18W
Wx Zone: MAZ022
Local Info
Past Weather Observations for Today

NOTE: This archive is for the closest National Weather Service station to Provincetown. Information may differ from the station used for current weather conditions.

Click here for Long-term Archive

Time Weather Temperature Dewpoint Humidity Pressure Winds Precip Visibility
22:55
Clear
21°F / -6°C 12°F / -11°C 68% 30.33 in
(1027 mb)
SW 18.4 mph
(SW 30 kph)
- 10SM
22:35
Clear
21°F / -6°C 12°F / -11°C 68% 30.33 in
(1027 mb)
SSW 17.3 mph
(SSW 28 kph)
- 10SM
22:15
Clear
21°F / -6°C 10°F / -12°C 63% 30.33 in
(1027 mb)
SW 17.3 mph
(SW 28 kph)
- 10SM
21:55
Clear
21°F / -6°C 10°F / -12°C 63% 30.36 in
(1028 mb)
SW 15 mph
(SW 24 kph)
- 10SM
21:35
Clear
21°F / -6°C 10°F / -12°C 63% 30.36 in
(1028 mb)
SW 16.1 mph
(SW 26 kph)
- 10SM
21:15
Clear
21°F / -6°C 10°F / -12°C 63% 30.36 in
(1028 mb)
SW 16.1 mph
(SW 26 kph)
- 10SM
20:55
Clear
21°F / -6°C 12°F / -11°C 68% 30.36 in
(1028 mb)
SW 13.8 mph
(SW 22 kph)
- 10SM
20:35
Clear
21°F / -6°C 10°F / -12°C 63% 30.36 in
(1028 mb)
SW 13.8 mph
(SW 22 kph)
- 10SM
20:15
Clear
21°F / -6°C 9°F / -13°C 58% 30.39 in
(1029 mb)
SW 11.5 mph
(SW 19 kph)
- 10SM
19:55
Clear
21°F / -6°C 7°F / -14°C 54% 30.39 in
(1029 mb)
SW 12.7 mph
(SW 20 kph)
- 10SM
19:35
Clear
21°F / -6°C 10°F / -12°C 63% 30.39 in
(1029 mb)
SW 12.7 mph
(SW 20 kph)
- 10SM
19:15
Clear
21°F / -6°C 10°F / -12°C 63% 30.39 in
(1029 mb)
SSE 8.1 mph
(SSE 13 kph)
- 10SM
18:55
Clear
21°F / -6°C 10°F / -12°C 63% 30.39 in
(1029 mb)
SSE 9.2 mph
(SSE 15 kph)
- 10SM
18:35
Clear
19°F / -7°C 10°F / -12°C 68% 30.39 in
(1029 mb)
S 6.9 mph
(S 11 kph)
- 10SM
18:15
Clear
19°F / -7°C 10°F / -12°C 68% 30.42 in
(1030 mb)
S 4.6 mph
(S 7 kph)
- 10SM
17:55
Clear
19°F / -7°C 9°F / -13°C 63% 30.42 in
(1030 mb)
S 5.8 mph
(S 9 kph)
- 10SM
17:35
Clear
19°F / -7°C 9°F / -13°C 63% 30.42 in
(1030 mb)
S 4.6 mph
(S 7 kph)
- 10SM
17:15
Clear
21°F / -6°C 9°F / -13°C 58% 30.42 in
(1030 mb)
S 6.9 mph
(S 11 kph)
- 10SM
16:55
Clear
21°F / -6°C 10°F / -12°C 63% 30.42 in
(1030 mb)
SSE 6.9 mph
(SSE 11 kph)
- 10SM
16:35
Clear
21°F / -6°C 10°F / -12°C 63% 30.42 in
(1030 mb)
S 6.9 mph
(S 11 kph)
- 10SM
16:15
Clear
21°F / -6°C 9°F / -13°C 58% 30.42 in
(1030 mb)
SSE 5.8 mph
(SSE 9 kph)
- 10SM
15:55
Clear
21°F / -6°C 10°F / -12°C 63% 30.42 in
(1030 mb)
SSW 4.6 mph
(SSW 7 kph)
- 10SM
15:35
Clear
21°F / -6°C 10°F / -12°C 63% 30.45 in
(1031 mb)
Calm - 10SM
15:15
Clear
21°F / -6°C 10°F / -12°C 63% 30.45 in
(1031 mb)
Calm - 10SM
14:55
Clear
21°F / -6°C 10°F / -12°C 63% 30.45 in
(1031 mb)
NW 3.5 mph
(NW 6 kph)
- 10SM
14:35
Clear
21°F / -6°C 10°F / -12°C 63% 30.45 in
(1031 mb)
WNW 5.8 mph
(WNW 9 kph)
- 10SM
14:15
Clear
23°F / -5°C 9°F / -13°C 54% 30.45 in
(1031 mb)
SSW 5.8 mph
(SSW 9 kph)
- 10SM
13:55
Clear
23°F / -5°C 9°F / -13°C 54% 30.45 in
(1031 mb)
WNW 4.6 mph
(WNW 7 kph)
- 10SM
13:35
Clear
23°F / -5°C 7°F / -14°C 50% 30.45 in
(1031 mb)
NW 3.5 mph
(NW 6 kph)
- 10SM
13:15
Clear
23°F / -5°C 7°F / -14°C 50% 30.45 in
(1031 mb)
Calm - 10SM
12:55
Clear
23°F / -5°C 7°F / -14°C 50% 30.45 in
(1031 mb)
N 3.5 mph
(N 6 kph)
- 10SM
12:35
Clear
23°F / -5°C 9°F / -13°C 54% 30.48 in
(1032 mb)
NNW 3.5 mph
(NNW 6 kph)
- 10SM
12:15
Partly Cloudy
23°F / -5°C 7°F / -14°C 50% 30.48 in
(1032 mb)
NW 6.9 mph
(NW 11 kph)
- 10SM
11:55
Partly Cloudy
23°F / -5°C 7°F / -14°C 50% 30.48 in
(1032 mb)
Calm - 10SM
11:35
Partly Cloudy
23°F / -5°C 9°F / -13°C 54% 30.48 in
(1032 mb)
NNW 5.8 mph
(NNW 9 kph)
- 10SM
11:15
Clear
23°F / -5°C 9°F / -13°C 54% 30.48 in
(1032 mb)
N 5.8 mph
(N 9 kph)
- 10SM
10:55
Partly Cloudy
21°F / -6°C 3°F / -16°C 45% 30.48 in
(1032 mb)
N 6.9 mph
(N 11 kph)
- 10SM
10:35
Partly Cloudy
21°F / -6°C 7°F / -14°C 54% 30.48 in
(1032 mb)
N 4.6 mph
(N 7 kph)
- 10SM
10:15
Partly Cloudy
21°F / -6°C 7°F / -14°C 54% 30.48 in
(1032 mb)
N 10.4 mph
(N 17 kph)
- 10SM
09:55
Partly Cloudy
21°F / -6°C 7°F / -14°C 54% 30.48 in
(1032 mb)
N 8.1 mph
(N 13 kph)
- 10SM
09:35
Partly Cloudy
21°F / -6°C 7°F / -14°C 54% 30.48 in
(1032 mb)
NE 8.1 mph
(NE 13 kph)
- 10SM
09:15
Partly Cloudy
21°F / -6°C 5°F / -15°C 49% 30.48 in
(1032 mb)
N 6.9 mph
(N 11 kph)
- 10SM
08:55
Partly Cloudy
21°F / -6°C 7°F / -14°C 54% 30.48 in
(1032 mb)
N 9.2 mph
(N 15 kph)
- 10SM
08:35
Clear
19°F / -7°C 9°F / -13°C 63% 30.48 in
(1032 mb)
N 11.5 mph
(N 19 kph)
- 10SM
08:15
Clear
19°F / -7°C 5°F / -15°C 53% 30.48 in
(1032 mb)
N 10.4 mph
(N 17 kph)
- 10SM
07:55
Partly Cloudy
19°F / -7°C 7°F / -14°C 58% 30.45 in
(1031 mb)
NNE 10.4 mph
(NNE 17 kph)
- 10SM
07:35
Partly Cloudy
19°F / -7°C 7°F / -14°C 58% 30.45 in
(1031 mb)
N 13.8 mph
(N 22 kph)
- 10SM
07:15
Clear
19°F / -7°C 7°F / -14°C 58% 30.45 in
(1031 mb)
N 10.4 mph
(N 17 kph)
- 10SM
06:55
Clear
19°F / -7°C 7°F / -14°C 58% 30.42 in
(1030 mb)
N 12.7 mph
(N 20 kph)
- 10SM
06:35
Clear
19°F / -7°C 3°F / -16°C 49% 30.42 in
(1030 mb)
N 13.8 mph
(N 22 kph)
- 10SM
06:15
Clear
19°F / -7°C 5°F / -15°C 53% 30.42 in
(1030 mb)
N 15 mph
(N 24 kph)
- 10SM
05:55
Partly Cloudy
19°F / -7°C 3°F / -16°C 49% 30.42 in
(1030 mb)
N 17.3 mph
(N 28 kph)
- 10SM
05:35
Clear
19°F / -7°C 5°F / -15°C 53% 30.42 in
(1030 mb)
N 16.1 mph
(N 26 kph)
- 10SM
05:15
Clear
19°F / -7°C 7°F / -14°C 58% 30.39 in
(1029 mb)
N 18.4 mph
(N 30 kph)
- 10SM
04:55
Clear
19°F / -7°C 7°F / -14°C 58% 30.39 in
(1029 mb)
N 15 mph
(N 24 kph)
- 10SM
04:35
Clear
19°F / -7°C 12°F / -11°C 73% 30.39 in
(1029 mb)
N 17.3 mph
(N 28 kph)
- 10SM
04:15
Clear
19°F / -7°C 10°F / -12°C 68% 30.36 in
(1028 mb)
NNW 18.4 mph
(NNW 30 kph)
- 10SM
03:55
Clear
19°F / -7°C 9°F / -13°C 63% 30.36 in
(1028 mb)
NNW 18.4 mph
(NNW 30 kph)
- 10SM
03:35
Clear
19°F / -7°C 7°F / -14°C 58% 30.36 in
(1028 mb)
NNW 18.4 mph
(NNW 30 kph)
- 10SM
02:55
Clear
19°F / -7°C 9°F / -13°C 63% 30.33 in
(1027 mb)
NNW 20.7 mph
(NNW 33 kph)
0.01 in
(0.25 mm)
10SM
02:35
Clear
19°F / -7°C 9°F / -13°C 63% 30.33 in
(1027 mb)
NNW 20.7 mph
(NNW 33 kph)
0.01 in
(0.25 mm)
9SM
02:15
Clear
19°F / -7°C 9°F / -13°C 63% 30.33 in
(1027 mb)
NNW 24.2 mph
(NNW 39 kph)
0.01 in
(0.25 mm)
10SM
01:55
Clear
19°F / -7°C 7°F / -14°C 58% 30.33 in
(1027 mb)
NNW 21.9 mph
(NNW 35 kph)
0.01 in
(0.25 mm)
8SM
01:35
Clear
19°F / -7°C 7°F / -14°C 58% 30.33 in
(1027 mb)
NNW 18.4 mph
(NNW 30 kph)
- 10SM
01:15
Clear
19°F / -7°C 7°F / -14°C 58% 30.3 in
(1026 mb)
NNW 20.7 mph
(NNW 33 kph)
- 10SM
00:55
Clear
21°F / -6°C 9°F / -13°C 58% 30.3 in
(1026 mb)
NNW 21.9 mph
(NNW 35 kph)
- 10SM
00:35
Clear
21°F / -6°C 9°F / -13°C 58% 30.3 in
(1026 mb)
NNW 19.6 mph
(NNW 32 kph)
- 10SM
00:15
Clear
21°F / -6°C 9°F / -13°C 58% 30.27 in
(1025 mb)
NNW 23 mph
(NNW 37 kph)
- 10SM
Time Weather Temperature Dewpoint Humidity Pressure Winds Precip Visibility


Weather for websites

WeatherForYou.com, LLC is not responsible for any damages or problems caused by this service. Current weather conditions are obtained from the closest station including government and personal stations which may have varying degrees of accuracy. Weather forecasts are derived from the NOAA NDFD. Like all things, this site belongs to Jesus Christ... He just trusts me to maintain it. If you have any questions or comments email webmaster@weatherforyou.com

Copyright © 2015, WeatherForYou.com LLC. All rights reserved.